DELTA 1 DEB, 21297

Orbit data source: Space-Track

DELTA 1 DEB, 21297 is space debris in SSO originally from a launch on Thu, 12 Jun 1975 UTC launched from the Air Force Western Test Range (AFWTR). Debris objects in space refer to the collection of defunct objects orbiting the Earth. Examples of debris include non-operational satellites, rocket bodies, and fragments generated from explosions, collisions, or faulty payload assembly.

Loading next visibility...
Identifier
21297, 1975-052AJ
Orbit
SSO
Country
Flag of USUS
Related business
Manufacturer
Unknown
Mission
Spacecraft
Bus & Motor
Unknown
Mass
Unknown
Launch date (UTC)
1975-06-12 (50 years ago)
Launch vehicle
Unknown
Launch site
Air Force Western Test Range (AFWTR)
Object type
Payload
Rocket body
Debris
Shape & HBR
Unknown
Radar Cross Section
Medium (>0.1 m² and <1 m²)

Expand to show TLE details & history
Last TLE update: 7 hours ago

TLE from 7 hours ago
0 DELTA 1 DEB
1 21297U 75052AJ  25259.29768414  .00000084  00000-0  25243-3 0  9995
2 21297  99.6889  98.5442 0069579 267.3235 267.0610 13.33217772669692
Epoch: 2025-09-16T07:08Z
TLE epoch observation values (Epoch: 2025-09-16T07:08:39.909Z)
Latitude
6.24569°
Longitude
176.95311°
Altitude
1,139.864 km
Speed
7.282 km/s
True Right ascension
18h 38m 26s
True Declination
6° 12' 38"
Sunlit
Object was in daylight at epoch
Visualization orbit readout
Latitude
Unknown
Longitude
Unknown
Altitude
Unknown
Speed
Unknown
Apparent Right ascension
Unknown
Apparent Declination
Unknown
Sunlit
N/A
Visualization observer readout
Local Sidereal Time
06:36:19
Azimuth
Unknown
Elevation
Unknown
Doppler factor
Unknown
Orbital elements
Apogee altitude
1,184.228 km
Perigee altitude
1,079.719 km
Semi-major axis
7,510.111 km
Eccentricity
0.00696
Inclination
99.6889°
RAAN
98.5442°
Arg. of periapsis
267.3235°
True anomaly
266.26511°
Mean anomaly
267.061°
Eccentric anomaly
266.66302°
Mean motion
3.33483 °/min
Orbital period
107.95 mins
BSTAR
0.00025243
Loading maneuver chart data...
Computing Atmospheric mass density...
Loading historical data...
Loading historical data...
Loading historical data...
Loading historical data...
Loading historical data...
Loading historical data...
Loading historical data...

Documentation

Showing up to 5 results
|